Time,TemperatureF,DewpointF,PressureIn,WindDirection,WindDirectionDegrees,WindSpeedMPH,WindSpeedGustMPH,Humidity,HourlyPrecipIn,Conditions,Clouds,dailyrainin,SolarRadiationWatts/m^2,SoftwareType,DateUTC
2013-01-20 00:04:00,70.0,65.0,-100.00,NNE,21,3.0,5.0,85,0.00,,,0.00,0.000000,,2013-01-20 05:04:00,
2013-01-20 00:12:00,70.0,65.0,-100.00,NNE,21,3.0,5.0,85,0.00,,,0.00,0.000000,,2013-01-20 05:12:00,
2013-01-20 00:23:00,70.0,65.0,-100.00,NNE,21,3.0,5.0,85,0.00,,,0.00,0.000000,,2013-01-20 05:23:00,
2013-01-20 00:33:00,70.0,65.0,-100.00,NNE,21,3.0,5.0,85,0.00,,,0.00,0.000000,,2013-01-20 05:33:00,
2013-01-20 01:02:00,71.0,67.0,-100.00,NNE,22,4.0,7.0,86,0.00,,,0.00,0.000000,,2013-01-20 06:02:00,
2013-01-20 01:12:00,71.0,67.0,-100.00,NNE,22,4.0,7.0,86,0.00,,,0.00,0.000000,,2013-01-20 06:12:00,
2013-01-20 01:22:00,71.0,67.0,-100.00,NNE,22,4.0,7.0,86,0.00,,,0.00,0.000000,,2013-01-20 06:22:00,
2013-01-20 01:33:00,71.0,67.0,-100.00,NNE,22,4.0,7.0,86,0.00,,,0.00,0.000000,,2013-01-20 06:33:00,
2013-01-20 01:53:00,70.0,67.0,-100.00,NNE,25,3.0,7.0,90,0.00,,,0.00,0.000000,,2013-01-20 06:53:00,
2013-01-20 02:02:00,70.0,67.0,-100.00,NNE,25,3.0,7.0,90,0.00,,,0.00,0.000000,,2013-01-20 07:02:00,
2013-01-20 02:12:00,70.0,67.0,-100.00,NNE,25,3.0,7.0,90,0.00,,,0.00,0.000000,,2013-01-20 07:12:00,
2013-01-20 02:22:00,70.0,67.0,-100.00,NNE,25,3.0,7.0,90,0.00,,,0.00,0.000000,,2013-01-20 07:22:00,
2013-01-20 02:32:00,70.0,67.0,-100.00,NNE,25,3.0,7.0,90,0.00,,,0.00,0.000000,,2013-01-20 07:32:00,
2013-01-20 02:52:00,69.0,67.0,-100.00,NE,37,2.0,5.0,93,0.00,,,0.00,0.000000,,2013-01-20 07:52:00,
2013-01-20 03:02:00,69.0,67.0,-100.00,NE,37,2.0,5.0,93,0.00,,,0.00,0.000000,,2013-01-20 08:02:00,
2013-01-20 03:12:00,69.0,67.0,-100.00,NE,37,2.0,5.0,93,0.00,,,0.00,0.000000,,2013-01-20 08:12:00,
2013-01-20 03:22:00,69.0,67.0,-100.00,NE,37,2.0,5.0,93,0.00,,,0.00,0.000000,,2013-01-20 08:22:00,
2013-01-20 03:32:00,69.0,67.0,-100.00,NE,37,2.0,5.0,93,0.00,,,0.00,0.000000,,2013-01-20 08:32:00,
2013-01-20 03:53:00,69.0,67.0,-100.00,NE,51,2.0,4.0,94,0.00,,,0.00,0.000000,,2013-01-20 08:53:00,
2013-01-20 04:02:00,69.0,67.0,-100.00,NE,51,2.0,4.0,94,0.00,,,0.00,0.000000,,2013-01-20 09:02:00,
2013-01-20 04:12:00,69.0,67.0,-100.00,NE,51,2.0,4.0,94,0.00,,,0.00,0.000000,,2013-01-20 09:12:00,
2013-01-20 04:22:00,69.0,67.0,-100.00,NE,51,2.0,4.0,94,0.00,,,0.00,0.000000,,2013-01-20 09:22:00,
2013-01-20 04:33:00,69.0,67.0,-100.00,NE,51,2.0,4.0,94,0.00,,,0.00,0.000000,,2013-01-20 09:33:00,
2013-01-20 04:53:00,70.0,68.0,-100.00,NNE,33,5.0,8.0,93,0.00,,,0.00,0.000000,,2013-01-20 09:53:00,
2013-01-20 05:03:00,70.0,68.0,-100.00,NNE,33,5.0,8.0,93,0.00,,,0.00,0.000000,,2013-01-20 10:03:00,
2013-01-20 05:12:00,70.0,68.0,-100.00,NNE,33,5.0,8.0,93,0.00,,,0.00,0.000000,,2013-01-20 10:12:00,
2013-01-20 05:23:00,70.0,68.0,-100.00,NNE,33,5.0,8.0,93,0.00,,,0.00,0.000000,,2013-01-20 10:23:00,
2013-01-20 05:32:00,70.0,68.0,-100.00,NNE,33,5.0,8.0,93,0.00,,,0.00,0.000000,,2013-01-20 10:32:00,
2013-01-20 05:53:00,69.0,67.0,-100.00,NE,40,4.0,8.0,93,0.00,,,0.00,0.000000,,2013-01-20 10:53:00,
2013-01-20 06:03:00,69.0,67.0,-100.00,NE,40,4.0,8.0,93,0.00,,,0.00,0.000000,,2013-01-20 11:03:00,
2013-01-20 06:12:00,69.0,67.0,-100.00,NE,40,4.0,8.0,93,0.00,,,0.00,0.000000,,2013-01-20 11:12:00,
2013-01-20 06:22:00,69.0,67.0,-100.00,NE,40,4.0,8.0,93,0.00,,,0.00,0.000000,,2013-01-20 11:22:00,
2013-01-20 06:33:00,69.0,67.0,-100.00,NE,40,4.0,8.0,93,0.00,,,0.00,0.000000,,2013-01-20 11:33:00,
2013-01-20 07:03:00,69.0,67.0,-100.00,NE,45,4.0,9.0,94,0.00,,,0.00,0.000000,,2013-01-20 12:03:00,
2013-01-20 07:13:00,69.0,67.0,-100.00,NE,45,4.0,9.0,94,0.00,,,0.00,0.000000,,2013-01-20 12:13:00,
2013-01-20 07:23:00,69.0,67.0,-100.00,NE,45,4.0,9.0,94,0.00,,,0.00,0.000000,,2013-01-20 12:23:00,
2013-01-20 07:33:00,69.0,67.0,-100.00,NE,45,4.0,9.0,94,0.00,,,0.00,0.000000,,2013-01-20 12:33:00,
2013-01-20 07:53:00,69.0,68.0,-100.00,NNE,18,4.0,6.0,95,0.00,,,0.00,7.000000,,2013-01-20 12:53:00,
2013-01-20 08:03:00,69.0,68.0,-100.00,NNE,18,4.0,6.0,95,0.00,,,0.00,7.000000,,2013-01-20 13:03:00,
2013-01-20 08:12:00,69.0,68.0,-100.00,NNE,18,4.0,6.0,95,0.00,,,0.00,7.000000,,2013-01-20 13:12:00,
2013-01-20 08:23:00,69.0,68.0,-100.00,NNE,18,4.0,6.0,95,0.00,,,0.00,7.000000,,2013-01-20 13:23:00,
2013-01-20 08:33:00,69.0,68.0,-100.00,NNE,18,4.0,6.0,95,0.00,,,0.00,7.000000,,2013-01-20 13:33:00,
2013-01-20 08:53:00,73.0,69.0,-100.00,NNE,22,4.0,7.0,87,0.00,,,0.00,100.000000,,2013-01-20 13:53:00,
2013-01-20 09:03:00,73.0,69.0,-100.00,NNE,22,4.0,7.0,87,0.00,,,0.00,100.000000,,2013-01-20 14:03:00,
2013-01-20 09:12:00,73.0,69.0,-100.00,NNE,22,4.0,7.0,87,0.00,,,0.00,100.000000,,2013-01-20 14:12:00,
2013-01-20 09:23:00,73.0,69.0,-100.00,NNE,22,4.0,7.0,87,0.00,,,0.00,100.000000,,2013-01-20 14:23:00,
2013-01-20 09:33:00,73.0,69.0,-100.00,NNE,22,4.0,7.0,87,0.00,,,0.00,100.000000,,2013-01-20 14:33:00,
2013-01-20 09:53:00,75.0,68.0,-100.00,NE,45,4.0,8.0,79,0.00,,,0.00,309.000000,,2013-01-20 14:53:00,
2013-01-20 10:04:00,75.0,68.0,-100.00,NE,45,4.0,8.0,79,0.00,,,0.00,309.000000,,2013-01-20 15:04:00,
2013-01-20 10:13:00,75.0,68.0,-100.00,NE,45,4.0,8.0,79,0.00,,,0.00,309.000000,,2013-01-20 15:13:00,
2013-01-20 10:23:00,75.0,68.0,-100.00,NE,45,4.0,8.0,79,0.00,,,0.00,309.000000,,2013-01-20 15:23:00,
2013-01-20 10:33:00,75.0,68.0,-100.00,NE,45,4.0,8.0,79,0.00,,,0.00,309.000000,,2013-01-20 15:33:00,
2013-01-20 11:03:00,76.0,69.0,-100.00,NE,44,5.0,10.0,78,0.00,,,0.00,469.000000,,2013-01-20 16:03:00,
2013-01-20 11:12:00,76.0,69.0,-100.00,NE,44,5.0,10.0,78,0.00,,,0.00,469.000000,,2013-01-20 16:12:00,
2013-01-20 11:23:00,76.0,69.0,-100.00,NE,44,5.0,10.0,78,0.00,,,0.00,469.000000,,2013-01-20 16:23:00,
2013-01-20 11:33:00,76.0,69.0,-100.00,NE,44,5.0,10.0,78,0.00,,,0.00,469.000000,,2013-01-20 16:33:00,
2013-01-20 12:03:00,76.0,67.0,-100.00,NE,35,6.0,9.0,73,0.00,,,0.00,496.000000,,2013-01-20 17:03:00,
2013-01-20 12:13:00,76.0,67.0,-100.00,NE,35,6.0,9.0,73,0.00,,,0.00,496.000000,,2013-01-20 17:13:00,
2013-01-20 12:23:00,76.0,67.0,-100.00,NE,35,6.0,9.0,73,0.00,,,0.00,496.000000,,2013-01-20 17:23:00,
2013-01-20 12:33:00,76.0,67.0,-100.00,NE,35,6.0,9.0,73,0.00,,,0.00,496.000000,,2013-01-20 17:33:00,
2013-01-20 13:03:00,77.0,67.0,-100.00,NE,56,6.0,10.0,72,0.00,,,0.00,581.000000,,2013-01-20 18:03:00,
2013-01-20 13:13:00,77.0,67.0,-100.00,NE,56,6.0,10.0,72,0.00,,,0.00,581.000000,,2013-01-20 18:13:00,
2013-01-20 13:23:00,77.0,67.0,-100.00,NE,56,6.0,10.0,72,0.00,,,0.00,581.000000,,2013-01-20 18:23:00,
2013-01-20 13:33:00,77.0,67.0,-100.00,NE,56,6.0,10.0,72,0.00,,,0.00,581.000000,,2013-01-20 18:33:00,
2013-01-20 13:53:00,77.0,65.0,-100.00,NE,38,5.0,9.0,66,0.00,,,0.00,547.000000,,2013-01-20 18:53:00,
2013-01-20 14:03:00,77.0,65.0,-100.00,NE,38,5.0,9.0,66,0.00,,,0.00,547.000000,,2013-01-20 19:03:00,
2013-01-20 14:12:00,77.0,65.0,-100.00,NE,38,5.0,9.0,66,0.00,,,0.00,547.000000,,2013-01-20 19:12:00,
2013-01-20 14:23:00,77.0,65.0,-100.00,NE,38,5.0,9.0,66,0.00,,,0.00,547.000000,,2013-01-20 19:23:00,
2013-01-20 14:33:00,77.0,65.0,-100.00,NE,38,5.0,9.0,66,0.00,,,0.00,547.000000,,2013-01-20 19:33:00,
2013-01-20 14:53:00,76.0,65.0,-100.00,NE,35,4.0,8.0,68,0.00,,,0.00,307.000000,,2013-01-20 19:53:00,
2013-01-20 15:03:00,76.0,65.0,-100.00,NE,35,4.0,8.0,68,0.00,,,0.00,307.000000,,2013-01-20 20:03:00,
2013-01-20 15:12:00,76.0,65.0,-100.00,NE,35,4.0,8.0,68,0.00,,,0.00,307.000000,,2013-01-20 20:12:00,
2013-01-20 15:23:00,76.0,65.0,-100.00,NE,35,4.0,8.0,68,0.00,,,0.00,307.000000,,2013-01-20 20:23:00,
2013-01-20 15:33:00,76.0,65.0,-100.00,NE,35,4.0,8.0,68,0.00,,,0.00,307.000000,,2013-01-20 20:33:00,
2013-01-20 15:54:00,76.0,66.0,-100.00,NNE,14,5.0,8.0,71,0.00,,,0.00,260.000000,,2013-01-20 20:54:00,
2013-01-20 16:04:00,76.0,66.0,-100.00,NNE,14,5.0,8.0,71,0.00,,,0.00,260.000000,,2013-01-20 21:04:00,
2013-01-20 16:13:00,76.0,66.0,-100.00,NNE,14,5.0,8.0,71,0.00,,,0.00,260.000000,,2013-01-20 21:13:00,
2013-01-20 16:23:00,76.0,66.0,-100.00,NNE,14,5.0,8.0,71,0.00,,,0.00,260.000000,,2013-01-20 21:23:00,
2013-01-20 16:33:00,76.0,66.0,-100.00,NNE,14,5.0,8.0,71,0.00,,,0.00,260.000000,,2013-01-20 21:33:00,
2013-01-20 17:03:00,74.0,66.0,-100.00,North,357,5.0,9.0,76,0.00,,,0.00,136.000000,,2013-01-20 22:03:00,
2013-01-20 17:13:00,74.0,66.0,-100.00,North,357,5.0,9.0,76,0.00,,,0.00,136.000000,,2013-01-20 22:13:00,
2013-01-20 17:23:00,74.0,66.0,-100.00,North,357,5.0,9.0,76,0.00,,,0.00,136.000000,,2013-01-20 22:23:00,
2013-01-20 17:33:00,74.0,66.0,-100.00,North,357,5.0,9.0,76,0.00,,,0.00,136.000000,,2013-01-20 22:33:00,
2013-01-20 17:53:00,73.0,67.0,-100.00,North,3,4.0,8.0,81,0.00,,,0.00,34.000000,,2013-01-20 22:53:00,
2013-01-20 18:03:00,73.0,67.0,-100.00,North,3,4.0,8.0,81,0.00,,,0.00,34.000000,,2013-01-20 23:03:00,
2013-01-20 18:13:00,73.0,67.0,-100.00,North,3,4.0,8.0,81,0.00,,,0.00,34.000000,,2013-01-20 23:13:00,
2013-01-20 18:23:00,73.0,67.0,-100.00,North,3,4.0,8.0,81,0.00,,,0.00,34.000000,,2013-01-20 23:23:00,
2013-01-20 18:33:00,73.0,67.0,-100.00,North,3,4.0,8.0,81,0.00,,,0.00,34.000000,,2013-01-20 23:33:00,
2013-01-20 19:03:00,72.0,66.0,-100.00,NNE,17,3.0,8.0,82,0.00,,,0.00,4.000000,,2013-01-21 00:03:00,
2013-01-20 19:13:00,72.0,66.0,-100.00,NNE,17,3.0,8.0,82,0.00,,,0.00,4.000000,,2013-01-21 00:13:00,
2013-01-20 19:23:00,72.0,66.0,-100.00,NNE,17,3.0,8.0,82,0.00,,,0.00,4.000000,,2013-01-21 00:23:00,
2013-01-20 19:33:00,72.0,66.0,-100.00,NNE,17,3.0,8.0,82,0.00,,,0.00,4.000000,,2013-01-21 00:33:00,
2013-01-20 19:54:00,72.0,67.0,-100.00,North,2,4.0,6.0,84,0.00,,,0.00,0.000000,,2013-01-21 00:54:00,
2013-01-20 20:03:00,72.0,67.0,-100.00,North,2,4.0,6.0,84,0.00,,,0.00,0.000000,,2013-01-21 01:03:00,
2013-01-20 20:13:00,72.0,67.0,-100.00,North,2,4.0,6.0,84,0.00,,,0.00,0.000000,,2013-01-21 01:13:00,
2013-01-20 20:23:00,72.0,67.0,-100.00,North,2,4.0,6.0,84,0.00,,,0.00,0.000000,,2013-01-21 01:23:00,
2013-01-20 20:33:00,72.0,67.0,-100.00,North,2,4.0,6.0,84,0.00,,,0.00,0.000000,,2013-01-21 01:33:00,
2013-01-20 21:03:00,72.0,67.0,-100.00,NNE,24,2.0,6.0,85,0.00,,,0.00,0.000000,,2013-01-21 02:03:00,
2013-01-20 21:13:00,72.0,67.0,-100.00,NNE,24,2.0,6.0,85,0.00,,,0.00,0.000000,,2013-01-21 02:13:00,
2013-01-20 21:23:00,72.0,67.0,-100.00,NNE,24,2.0,6.0,85,0.00,,,0.00,0.000000,,2013-01-21 02:23:00,
2013-01-20 21:33:00,72.0,67.0,-100.00,NNE,24,2.0,6.0,85,0.00,,,0.00,0.000000,,2013-01-21 02:33:00,
2013-01-20 21:53:00,71.0,67.0,-100.00,NNW,345,3.0,6.0,86,0.00,,,0.00,0.000000,,2013-01-21 02:53:00,
2013-01-20 22:03:00,71.0,67.0,-100.00,NNW,345,3.0,6.0,86,0.00,,,0.00,0.000000,,2013-01-21 03:03:00,
2013-01-20 22:13:00,71.0,67.0,-100.00,NNW,345,3.0,6.0,86,0.00,,,0.00,0.000000,,2013-01-21 03:13:00,
2013-01-20 22:23:00,71.0,67.0,-100.00,NNW,345,3.0,6.0,86,0.00,,,0.00,0.000000,,2013-01-21 03:23:00,
2013-01-20 22:33:00,71.0,67.0,-100.00,NNW,345,3.0,6.0,86,0.00,,,0.00,0.000000,,2013-01-21 03:33:00,
2013-01-20 22:54:00,71.0,67.0,-100.00,North,5,3.0,6.0,87,0.00,,,0.00,0.000000,,2013-01-21 03:54:00,
2013-01-20 23:03:00,71.0,67.0,-100.00,North,5,3.0,6.0,87,0.00,,,0.00,0.000000,,2013-01-21 04:03:00,
2013-01-20 23:13:00,71.0,67.0,-100.00,North,5,3.0,6.0,87,0.00,,,0.00,0.000000,,2013-01-21 04:13:00,
2013-01-20 23:23:00,71.0,67.0,-100.00,North,5,3.0,6.0,87,0.00,,,0.00,0.000000,,2013-01-21 04:23:00,
2013-01-20 23:33:00,71.0,67.0,-100.00,North,5,3.0,6.0,87,0.00,,,0.00,0.000000,,2013-01-21 04:33:00,
2013-01-20 23:53:00,70.0,67.0,-100.00,North,8,2.0,6.0,89,0.00,,,0.00,0.000000,,2013-01-21 04:53:00,